Time,TemperatureF,DewpointF,PressureIn,WindDirection,WindDirectionDegrees,WindSpeedMPH,WindSpeedGustMPH,Humidity,HourlyPrecipIn,Conditions,Clouds,dailyrainin,SoftwareType,DateUTC
2014-01-25 00:21:00,19.0,6.0,30.24,South,191,2.0,-999.0,56,-99.99,,,0.00,,2014-01-25 06:21:00,
2014-01-25 00:42:00,21.0,6.0,30.25,SSW,212,1.0,-999.0,51,-99.99,,,0.00,,2014-01-25 06:42:00,
2014-01-25 00:53:00,21.0,6.0,30.24,SSW,207,1.0,-999.0,51,-99.99,,,0.00,,2014-01-25 06:53:00,
2014-01-25 01:21:00,20.0,5.0,30.23,SSW,207,0.0,-999.0,52,-99.99,,,0.00,,2014-01-25 07:21:00,
2014-01-25 01:42:00,21.0,7.0,30.22,SSW,205,1.0,-999.0,53,-99.99,,,0.00,,2014-01-25 07:42:00,
2014-01-25 01:52:00,21.0,7.0,30.23,SSW,204,0.0,-999.0,53,-99.99,,,0.00,,2014-01-25 07:52:00,
2014-01-25 02:22:00,22.0,8.0,30.20,South,189,1.0,-999.0,53,-99.99,,,0.00,,2014-01-25 08:22:00,
2014-01-25 02:42:00,22.0,7.0,30.20,South,189,0.0,-999.0,51,-99.99,,,0.00,,2014-01-25 08:42:00,
2014-01-25 02:52:00,24.0,9.0,30.19,South,190,0.0,-999.0,52,-99.99,,,0.00,,2014-01-25 08:52:00,
2014-01-25 03:21:00,26.0,9.0,30.18,SW,231,3.0,-999.0,49,-99.99,,,0.00,,2014-01-25 09:21:00,
2014-01-25 03:43:00,26.0,9.0,30.16,SW,224,4.0,-999.0,48,-99.99,,,0.00,,2014-01-25 09:43:00,
2014-01-25 03:53:00,26.0,9.0,30.15,SW,235,3.0,-999.0,49,-99.99,,,0.00,,2014-01-25 09:53:00,
2014-01-25 04:22:00,27.0,9.0,30.13,SW,233,3.0,-999.0,46,-99.99,,,0.00,,2014-01-25 10:22:00,
2014-01-25 04:53:00,28.0,9.0,30.13,WSW,257,4.0,-999.0,44,-99.99,,,0.00,,2014-01-25 10:53:00,
2014-01-25 05:22:00,28.0,8.0,30.10,SW,214,6.0,-999.0,43,-99.99,,,0.00,,2014-01-25 11:22:00,
2014-01-25 05:42:00,29.0,9.0,30.10,SW,225,6.0,-999.0,42,-99.99,,,0.00,,2014-01-25 11:42:00,
2014-01-25 05:52:00,29.0,8.0,30.09,SW,227,5.0,-999.0,41,-99.99,,,0.00,,2014-01-25 11:52:00,
2014-01-25 06:22:00,29.0,8.0,30.07,SW,234,5.0,-999.0,41,-99.99,,,0.00,,2014-01-25 12:22:00,
2014-01-25 06:42:00,29.0,8.0,30.07,SW,231,5.0,-999.0,41,-99.99,,,0.00,,2014-01-25 12:42:00,
2014-01-25 06:52:00,29.0,9.0,30.04,SW,236,7.0,-999.0,42,-99.99,,,0.00,,2014-01-25 12:52:00,
2014-01-25 07:22:00,29.0,9.0,30.05,SW,234,5.0,-999.0,42,-99.99,,,0.00,,2014-01-25 13:22:00,
2014-01-25 07:42:00,29.0,9.0,30.06,SSW,213,7.0,-999.0,43,-99.99,,,0.00,,2014-01-25 13:42:00,
2014-01-25 07:53:00,29.0,9.0,30.05,WSW,242,7.0,-999.0,43,-99.99,,,0.00,,2014-01-25 13:53:00,
2014-01-25 08:22:00,30.0,11.0,30.02,WSW,238,6.0,-999.0,44,-99.99,,,0.00,,2014-01-25 14:22:00,
2014-01-25 08:42:00,30.0,11.0,30.00,SW,223,7.0,-999.0,44,-99.99,,,0.00,,2014-01-25 14:42:00,
2014-01-25 08:52:00,31.0,12.0,30.02,WSW,243,8.0,-999.0,44,-99.99,,,0.00,,2014-01-25 14:52:00,
2014-01-25 09:22:00,32.0,13.0,30.01,West,273,6.0,-999.0,45,-99.99,,,0.00,,2014-01-25 15:22:00,
2014-01-25 09:43:00,32.0,13.0,30.01,NW,312,8.0,-999.0,44,-99.99,,,0.00,,2014-01-25 15:43:00,
2014-01-25 09:53:00,33.0,13.0,30.01,WNW,303,5.0,-999.0,43,-99.99,,,0.00,,2014-01-25 15:53:00,
2014-01-25 10:13:00,33.0,13.0,30.02,SW,231,4.0,-999.0,43,-99.99,,,0.00,,2014-01-25 16:13:00,
2014-01-25 10:23:00,34.0,14.0,30.01,WSW,253,5.0,-999.0,43,-99.99,,,0.00,,2014-01-25 16:23:00,
2014-01-25 10:43:00,34.0,13.0,30.01,West,272,6.0,-999.0,42,-99.99,,,0.00,,2014-01-25 16:43:00,
2014-01-25 10:53:00,35.0,14.0,30.01,WSW,238,5.0,-999.0,42,-99.99,,,0.00,,2014-01-25 16:53:00,
2014-01-25 11:22:00,37.0,15.0,29.99,SW,235,6.0,-999.0,40,-99.99,,,0.00,,2014-01-25 17:22:00,
2014-01-25 11:42:00,39.0,16.0,29.99,West,273,8.0,-999.0,39,-99.99,,,0.00,,2014-01-25 17:42:00,
2014-01-25 11:52:00,40.0,16.0,29.98,NW,305,6.0,-999.0,38,-99.99,,,0.00,,2014-01-25 17:52:00,
2014-01-25 12:22:00,41.0,17.0,29.96,WSW,251,9.0,-999.0,38,-99.99,,,0.00,,2014-01-25 18:22:00,
2014-01-25 12:52:00,43.0,19.0,29.96,WNW,290,7.0,-999.0,37,-99.99,,,0.00,,2014-01-25 18:52:00,
2014-01-25 13:22:00,44.0,19.0,29.93,SW,236,7.0,-999.0,37,-99.99,,,0.00,,2014-01-25 19:22:00,
2014-01-25 13:42:00,44.0,20.0,29.94,WSW,251,7.0,-999.0,38,-99.99,,,0.00,,2014-01-25 19:42:00,
2014-01-25 13:52:00,44.0,21.0,29.94,NW,324,5.0,-999.0,39,-99.99,,,0.00,,2014-01-25 19:52:00,
2014-01-25 14:22:00,45.0,21.0,29.94,WSW,250,6.0,-999.0,38,-99.99,,,0.00,,2014-01-25 20:22:00,
2014-01-25 14:42:00,44.0,22.0,29.93,NNW,327,7.0,-999.0,41,-99.99,,,0.00,,2014-01-25 20:42:00,
2014-01-25 14:52:00,45.0,22.0,29.93,SSW,205,7.0,-999.0,40,-99.99,,,0.00,,2014-01-25 20:52:00,
2014-01-25 15:21:00,45.0,22.0,29.94,NW,311,5.0,-999.0,40,-99.99,,,0.00,,2014-01-25 21:21:00,
2014-01-25 15:43:00,45.0,23.0,29.94,NW,308,5.0,-999.0,42,-99.99,,,0.00,,2014-01-25 21:43:00,
2014-01-25 15:54:00,45.0,23.0,29.94,West,265,6.0,-999.0,42,-99.99,,,0.00,,2014-01-25 21:54:00,
2014-01-25 16:23:00,45.0,23.0,29.96,SW,229,3.0,-999.0,42,-99.99,,,0.00,,2014-01-25 22:23:00,
2014-01-25 16:43:00,45.0,24.0,29.95,WSW,248,3.0,-999.0,43,-99.99,,,0.00,,2014-01-25 22:43:00,
2014-01-25 16:53:00,44.0,23.0,29.96,WNW,285,1.0,-999.0,43,-99.99,,,0.00,,2014-01-25 22:53:00,
2014-01-25 17:22:00,42.0,23.0,29.96,WSW,245,0.0,-999.0,47,-99.99,,,0.00,,2014-01-25 23:22:00,
2014-01-25 17:42:00,39.0,22.0,29.97,WSW,245,0.0,-999.0,51,-99.99,,,0.00,,2014-01-25 23:42:00,
2014-01-25 17:52:00,38.0,22.0,29.98,WSW,245,0.0,-999.0,53,-99.99,,,0.00,,2014-01-25 23:52:00,
2014-01-25 18:22:00,37.0,23.0,29.98,SW,228,0.0,-999.0,56,-99.99,,,0.00,,2014-01-26 00:22:00,
2014-01-25 18:42:00,37.0,23.0,29.99,SW,228,0.0,-999.0,57,-99.99,,,0.00,,2014-01-26 00:42:00,
2014-01-25 18:52:00,37.0,23.0,29.99,WSW,248,1.0,-999.0,56,-99.99,,,0.00,,2014-01-26 00:52:00,
2014-01-25 19:11:00,36.0,23.0,29.99,WSW,247,0.0,-999.0,59,-99.99,,,0.00,,2014-01-26 01:11:00,
2014-01-25 19:21:00,35.0,23.0,30.00,WSW,247,0.0,-999.0,61,-99.99,,,0.00,,2014-01-26 01:21:00,
2014-01-25 19:42:00,35.0,23.0,30.00,WSW,247,0.0,-999.0,62,-99.99,,,0.00,,2014-01-26 01:42:00,
2014-01-25 19:52:00,34.0,22.0,30.01,WSW,247,0.0,-999.0,62,-99.99,,,0.00,,2014-01-26 01:52:00,
2014-01-25 20:21:00,35.0,23.0,30.01,WSW,237,0.0,-999.0,62,-99.99,,,0.00,,2014-01-26 02:21:00,
2014-01-25 20:52:00,32.0,22.0,30.01,WSW,237,0.0,-999.0,66,-99.99,,,0.00,,2014-01-26 02:52:00,
2014-01-25 21:11:00,31.0,22.0,30.01,WSW,237,0.0,-999.0,70,-99.99,,,0.00,,2014-01-26 03:11:00,
2014-01-25 21:22:00,32.0,23.0,30.01,WSW,239,0.0,-999.0,69,-99.99,,,0.00,,2014-01-26 03:22:00,
2014-01-25 21:43:00,33.0,24.0,30.01,WSW,239,0.0,-999.0,68,-99.99,,,0.00,,2014-01-26 03:43:00,
2014-01-25 21:53:00,32.0,23.0,30.02,WSW,239,0.0,-999.0,69,-99.99,,,0.00,,2014-01-26 03:53:00,
2014-01-25 22:02:00,-999.0,-99.9,30.02,WSW,239,0.0,-999.0,70,-99.99,,,0.00,,2014-01-26 04:02:00,
2014-01-25 22:23:00,32.0,24.0,30.01,WSW,239,0.0,-999.0,71,-99.99,,,0.00,,2014-01-26 04:23:00,
2014-01-25 22:53:00,32.0,23.0,30.02,West,260,0.0,-999.0,69,-99.99,,,0.00,,2014-01-26 04:53:00,
2014-01-25 23:12:00,30.0,22.0,30.02,West,260,0.0,-999.0,73,-99.99,,,0.00,,2014-01-26 05:12:00,
2014-01-25 23:22:00,29.0,22.0,30.03,West,260,0.0,-999.0,74,-99.99,,,0.00,,2014-01-26 05:22:00,
2014-01-25 23:43:00,28.0,22.0,30.02,West,260,0.0,-999.0,77,-99.99,,,0.00,,2014-01-26 05:43:00,
2014-01-25 23:52:00,28.0,22.0,30.02,West,260,0.0,-999.0,79,-99.99,,,0.00,,2014-01-26 05:52:00,